Hourly Weather Bolshie Koshevniki

Today, 20 June, Sunday

Time Temperature Precipitation Wind Pressure Humidity
00:00 +19°C° 0 mm 2 mps 746 mmHg 87%
01:00 +19°C° 0 mm 2 mps 746 mmHg 89%
02:00 +19°C° 0 mm 2 mps 746 mmHg 91%
03:00 +19°C° 0 mm 2 mps 746 mmHg 91%
04:00 +19°C° 0 mm 2 mps 746 mmHg 91%
05:00 +19°C° 0 mm 2 mps 746 mmHg 91%
06:00 +21°C° 0 mm 3 mps 746 mmHg 86%
07:00 +22°C° 0 mm 3 mps 746 mmHg 81%
08:00 +25°C° 0 mm 4 mps 746 mmHg 76%
09:00 +26°C° 0 mm 4 mps 746 mmHg 72%
10:00 +27°C° 0 mm 4 mps 746 mmHg 68%
11:00 +28°C° 0 mm 4 mps 746 mmHg 64%
12:00 +28°C° 0 mm 4 mps 745 mmHg 62%
13:00 +29°C° 0 mm 4 mps 745 mmHg 59%
14:00 +29°C° 0 mm 4 mps 745 mmHg 57%
15:00 +29°C° 0.1 mm 4 mps 744 mmHg 60%
16:00 +29°C° 0.1 mm 4 mps 744 mmHg 62%
17:00 +29°C° 0.1 mm 4 mps 744 mmHg 64%
18:00 +27°C° 0.1 mm 4 mps 744 mmHg 71%
19:00 +26°C° 0.1 mm 3 mps 744 mmHg 77%
20:00 +24°C° 0.1 mm 3 mps 744 mmHg 83%
21:00 +22°C° 0 mm 3 mps 744 mmHg 85%
22:00 +21°C° 0 mm 3 mps 744 mmHg 87%
23:00 +20°C° 0 mm 3 mps 744 mmHg 89%

Tomorrow, 21 June, Monday

Time Temperature Precipitation Wind Pressure Humidity
00:00 +20°C° 0 mm 3 mps 744 mmHg 90%
01:00 +19°C° 0 mm 3 mps 744 mmHg 92%
02:00 +18°C° 0 mm 3 mps 743 mmHg 94%
03:00 +18°C° 0 mm 2 mps 743 mmHg 93%
04:00 +18°C° 0 mm 2 mps 743 mmHg 93%
05:00 +18°C° 0 mm 2 mps 743 mmHg 93%
06:00 +20°C° 0 mm 3 mps 743 mmHg 87%
07:00 +21°C° 0 mm 3 mps 743 mmHg 81%
08:00 +23°C° 0 mm 4 mps 743 mmHg 76%
09:00 +25°C° 0 mm 4 mps 743 mmHg 69%
10:00 +26°C° 0 mm 4 mps 743 mmHg 63%
11:00 +27°C° 0 mm 5 mps 743 mmHg 57%
12:00 +28°C° 0 mm 5 mps 743 mmHg 55%
13:00 +28°C° 0 mm 5 mps 742 mmHg 54%
14:00 +29°C° 0 mm 5 mps 742 mmHg 52%
15:00 +29°C° 0 mm 5 mps 742 mmHg 55%
16:00 +29°C° 0 mm 4 mps 742 mmHg 58%
17:00 +28°C° 0 mm 4 mps 741 mmHg 61%
18:00 +27°C° 0.1 mm 4 mps 741 mmHg 68%
19:00 +25°C° 0.1 mm 3 mps 741 mmHg 74%
20:00 +24°C° 0.1 mm 3 mps 741 mmHg 81%
21:00 +22°C° 0 mm 3 mps 741 mmHg 84%
22:00 +21°C° 0 mm 3 mps 741 mmHg 87%
23:00 +20°C° 0 mm 2 mps 741 mmHg 90%

Day after tomorrow, 22 June, Tuesday

Time Temperature Precipitation Wind Pressure Humidity
00:00 +20°C° 0 mm 2 mps 741 mmHg 91%
01:00 +20°C° 0 mm 2 mps 741 mmHg 92%
02:00 +20°C° 0 mm 2 mps 741 mmHg 94%
03:00 +20°C° 0 mm 2 mps 741 mmHg 94%
04:00 +20°C° 0 mm 3 mps 741 mmHg 94%
05:00 +20°C° 0 mm 3 mps 741 mmHg 94%
06:00 +21°C° 0 mm 3 mps 741 mmHg 89%
07:00 +23°C° 0 mm 4 mps 741 mmHg 84%
08:00 +25°C° 0 mm 4 mps 741 mmHg 79%
09:00 +26°C° 0.5 mm 4 mps 741 mmHg 76%
10:00 +27°C° 0.5 mm 4 mps 742 mmHg 73%
11:00 +28°C° 0.5 mm 4 mps 742 mmHg 70%
12:00 +28°C° 0.7 mm 4 mps 742 mmHg 69%
13:00 +29°C° 0.7 mm 4 mps 742 mmHg 67%
14:00 +29°C° 0.7 mm 4 mps 742 mmHg 66%
15:00 +29°C° 0.5 mm 3 mps 742 mmHg 66%
16:00 +29°C° 0.5 mm 3 mps 742 mmHg 67%
17:00 +29°C° 0.5 mm 2 mps 742 mmHg 67%
18:00 +28°C° 0.2 mm 2 mps 742 mmHg 71%
19:00 +27°C° 0.2 mm 2 mps 742 mmHg 75%
20:00 +26°C° 0.2 mm 2 mps 741 mmHg 79%
21:00 +25°C° 0.2 mm 2 mps 742 mmHg 82%
22:00 +24°C° 0.2 mm 2 mps 742 mmHg 84%
23:00 +23°C° 0.2 mm 2 mps 742 mmHg 87%

23 June, Wednesday

Time Temperature Precipitation Wind Pressure Humidity
00:00 +23°C° 0.1 mm 2 mps 742 mmHg 89%
01:00 +21°C° 0.1 mm 2 mps 742 mmHg 90%
02:00 +21°C° 0.1 mm 2 mps 742 mmHg 92%
03:00 +20°C° 0.1 mm 2 mps 742 mmHg 92%
04:00 +20°C° 0.1 mm 2 mps 742 mmHg 92%
05:00 +20°C° 0.1 mm 2 mps 743 mmHg 92%
06:00 +21°C° 0.4 mm 3 mps 743 mmHg 88%
07:00 +24°C° 0.4 mm 3 mps 743 mmHg 83%
08:00 +25°C° 0.4 mm 3 mps 743 mmHg 78%
09:00 +26°C° 0 mm 4 mps 743 mmHg 72%
10:00 +28°C° 0 mm 4 mps 743 mmHg 66%
11:00 +29°C° 0 mm 4 mps 744 mmHg 59%
12:00 +30°C° 0 mm 4 mps 744 mmHg 56%
13:00 +30°C° 0 mm 4 mps 744 mmHg 54%
14:00 +31°C° 0 mm 3 mps 744 mmHg 51%
15:00 +31°C° 0 mm 3 mps 744 mmHg 53%
16:00 +31°C° 0 mm 2 mps 743 mmHg 55%
17:00 +31°C° 0 mm 2 mps 743 mmHg 57%
18:00 +30°C° 0 mm 2 mps 743 mmHg 63%
19:00 +28°C° 0 mm 1 mps 743 mmHg 69%
20:00 +27°C° 0 mm 1 mps 743 mmHg 75%
21:00 +26°C° 0 mm 1 mps 743 mmHg 77%
22:00 +25°C° 0 mm 2 mps 743 mmHg 79%
23:00 +24°C° 0 mm 2 mps 743 mmHg 82%

24 June, Thursday

Time Temperature Precipitation Wind Pressure Humidity
00:00 +24°C° 0.5 mm 2 mps 743 mmHg 85%
01:00 +23°C° 0.5 mm 2 mps 743 mmHg 88%
02:00 +23°C° 0.5 mm 2 mps 743 mmHg 92%
03:00 +23°C° 0 mm 2 mps 743 mmHg 92%
04:00 +23°C° 0 mm 2 mps 743 mmHg 92%
05:00 +23°C° 0 mm 2 mps 743 mmHg 92%
06:00 +24°C° 0 mm 3 mps 743 mmHg 88%
07:00 +25°C° 0 mm 3 mps 744 mmHg 83%
08:00 +27°C° 0 mm 3 mps 744 mmHg 79%
09:00 +28°C° 0 mm 4 mps 744 mmHg 74%
10:00 +29°C° 0 mm 4 mps 744 mmHg 68%
11:00 +30°C° 0 mm 4 mps 744 mmHg 63%
12:00 +32°C° 0 mm 4 mps 744 mmHg 61%
13:00 +32°C° 0 mm 4 mps 744 mmHg 59%
14:00 +32°C° 0 mm 4 mps 743 mmHg 57%
15:00 +32°C° 0.2 mm 4 mps 743 mmHg 61%
16:00 +30°C° 0.2 mm 3 mps 743 mmHg 65%
17:00 +29°C° 0.2 mm 3 mps 743 mmHg 70%
18:00 +28°C° 0.1 mm 2 mps 743 mmHg 73%
19:00 +27°C° 0.1 mm 2 mps 743 mmHg 77%
20:00 +26°C° 0.1 mm 1 mps 742 mmHg 80%
21:00 +25°C° 0 mm 2 mps 742 mmHg 81%
22:00 +25°C° 0 mm 2 mps 742 mmHg 83%
23:00 +24°C° 0 mm 2 mps 742 mmHg 84%

25 June, Friday

Time Temperature Precipitation Wind Pressure Humidity
00:00 +23°C° 0.2 mm 2 mps 742 mmHg 85%
01:00 +23°C° 0.2 mm 2 mps 741 mmHg 86%
02:00 +21°C° 0.2 mm 2 mps 741 mmHg 88%
03:00 +21°C° 0 mm 2 mps 741 mmHg 89%
04:00 +21°C° 0 mm 2 mps 741 mmHg 90%
05:00 +21°C° 0 mm 2 mps 740 mmHg 91%
06:00 +23°C° 0 mm 2 mps 741 mmHg 86%
07:00 +24°C° 0 mm 3 mps 741 mmHg 81%
08:00 +25°C° 0 mm 3 mps 741 mmHg 77%
09:00 +26°C° 0.6 mm 3 mps 741 mmHg 74%
10:00 +27°C° 0.6 mm 3 mps 740 mmHg 71%
11:00 +28°C° 0.6 mm 3 mps 740 mmHg 68%
12:00 +28°C° 0.8 mm 3 mps 740 mmHg 67%
13:00 +29°C° 0.8 mm 4 mps 740 mmHg 65%
14:00 +29°C° 0.8 mm 4 mps 740 mmHg 64%
15:00 +28°C° 0.4 mm 4 mps 740 mmHg 68%
16:00 +28°C° 0.4 mm 4 mps 740 mmHg 72%
17:00 +27°C° 0.4 mm 5 mps 740 mmHg 76%
18:00 +26°C° 0.1 mm 4 mps 740 mmHg 81%
19:00 +25°C° 0.1 mm 4 mps 740 mmHg 86%
20:00 +22°C° 0.1 mm 3 mps 740 mmHg 90%
21:00 +21°C° 0 mm 3 mps 740 mmHg 92%
22:00 +20°C° 0 mm 2 mps 741 mmHg 95%
23:00 +19°C° 0 mm 2 mps 741 mmHg 97%
Show more